{"data":{"norad_id":65494,"intl_designator":"2025-198C","name":"STARLINK-35223","alt_names":[],"object_type":"PAYLOAD","status":"ACTIVE","operator":null,"country":"US","launch_date":"2025-09-05","launch_site_code":"AFETR","launch_vehicle":null,"mission":null,"orbit_class":"UNKNOWN","rcs_meters":null,"size_class":null,"mass_kg":null,"dimensions":null,"purposes":["comms"],"wikipedia_slug":null,"has_3d_model":false,"image_url":null,"decayed_at":null,"tle_current":{"epoch":"2026-05-24T19:06:43.562592Z","epoch_age_seconds":86510,"freshness":"FRESH","line1":"1 65494U 25198C   26144.79633753  .00017066  00000+0  51508-3 0  9994","line2":"2 65494  53.1572 276.6907 0000890  61.6533 298.4560 15.34398692 40289","mean_motion":15.34398692,"eccentricity":8.9e-5,"inclination_deg":53.1572,"raan_deg":276.6907,"arg_perigee_deg":61.6533,"mean_anomaly_deg":298.456,"bstar":0.00051508,"rev_number":4028,"period_min":93.847838081968,"perigee_km":462.09829273414,"apogee_km":463.31596298889,"semimajor_km":6840.8441278615,"source":"CELESTRAK","updated_at":"2026-05-25T13:38:20.839771Z"}}}